This demonstration page uses our WeatherBlox Daily Observations layout. Learn more.

39.92423, -83.80882

Hourly Observations for June 15, 2017

Temp ( °F °C ) Dew Point ( °F °C ) Humidity (%) Winds ( mph kmh ) Pressure ( in mb ) Visibility ( mi km ) Precip ( " mm )
1:58 am 01:58 Cloudy 67 19.6 67 19.6 100 100 SSW 5 7 29.93 1014 10 16.0934 0 0
3:58 am 03:58 Cloudy 69 20.6 69 20.6 100 100 SSW 5 7 29.9 1012 10 16.0934 0 0
4:58 am 04:58 Cloudy with Light Rain 69 20.5 69 20.5 100 100 SSW 5 7 29.91 1013 10 16.0934 0 0.0254
5:58 am 05:58 Cloudy with Light Rain 68 20 68 20 100 100 SSW 7 11 29.9 1013 10 16.0934 0.01 0.254
6:09 am 06:09 Mostly Cloudy with Light Rain 68 20 68 20 100 100 SSW 8 13 29.89 1012 9 14.48406 0 0
6:58 am 06:58 Cloudy 68 19.8 68 19.8 100 100 ESE 7 11 29.86 1011 10 16.0934 0.03 0.762
7:58 am 07:58 Mostly Cloudy 68 20.2 68 20.2 100 100 SSE 5 7 29.86 1011 10 16.0934 0.01 0.254
8:58 am 08:58 Partly Cloudy 71 21.5 71 21.4 99 99 WNW 5 7 29.89 1012 10 16.0934 0 0
9:18 am 09:18 Mostly Cloudy 72 22 72 22 100 100 WNW 5 7 29.9 1013 10 16.0934 0 0
9:31 am 09:31 Mostly Cloudy 72 22 70 21 94 94 W 7 11 29.9 1013 10 16.0934 0 0
9:52 am 09:52 Mostly Cloudy 73 23 70 21 89 89 VRB 6 9 29.9 1013 10 16.0934 0 0
9:58 am 09:58 Mostly Cloudy 73 22.7 70 21 90 90 W 7 11 29.9 1013 10 16.0934 0 0.0254
10:08 am 10:08 Mostly Cloudy 73 23 70 21 89 89 W 9 15 29.91 1013 10 16.0934 0 0
10:58 am 10:58 Cloudy 73 22.5 70 21.1 92 92 W 6 9 29.92 1013 10 16.0934 0 0
11:28 am 11:28 Mostly Cloudy 73 23 70 21 89 89 WSW 6 9 29.91 1013 10 16.0934 0 0
11:58 am 11:58 Mostly Cloudy 75 24.1 70 21.1 83 83 WSW 9 15 29.91 1013 10 16.0934 0 0
12:58 pm 12:58 Mostly Cloudy 76 24.7 70 21.2 81 81 SSW 6 9 29.89 1012 10 16.0934 0 0
1:58 pm 13:58 Partly Cloudy 78 25.8 69 20.8 74 74 SW 5 7 29.89 1012 10 16.0934 0 0
2:58 pm 14:58 Partly Cloudy 79 26.3 67 19.5 66 66 W 7 11 29.88 1012 10 16.0934 0 0
3:58 pm 15:58 Mostly Cloudy 80 26.9 69 20.3 67 67 WSW 7 11 29.87 1012 10 16.0934 0 0
4:58 pm 16:58 Mostly Cloudy 82 28 69 20.3 63 63 WSW 8 13 29.86 1011 10 16.0934 0 0
5:58 pm 17:58 Mostly Cloudy 81 27.2 68 20 65 65 WSW 6 9 29.84 1011 10 16.0934 0 0
6:58 pm 18:58 Mostly Cloudy 80 26.8 68 19.9 66 66 W 6 9 29.84 1011 10 16.0934 0 0
7:58 pm 19:58 Cloudy 78 25.8 69 20.6 73 73 WSW 6 9 29.85 1011 10 16.0934 0 0
8:58 pm 20:58 Mostly Cloudy 75 24 71 21.7 87 87 SSW 5 7 29.85 1011 10 16.0934 0 0
9:58 pm 21:58 Cloudy 75 24 70 21 83 83 SW 6 9 29.86 1011 10 16.0934 0 0
10:58 pm 22:58 Cloudy 73 22.8 71 21.5 92 92 SSW 3 6 29.87 1012 10 16.0934 0 0
11:58 pm 23:58 Mostly Cloudy 72 22.4 71 21.5 95 95 Calm 29.87 1012 10 16.0934 0 0

Powered by AerisWeather